Tracking 18840 objects as of 18-November-2017
HD Live streaming from Space Station
objects crossing your sky now

FENGYUN 1C DEB

Track FENGYUN 1C DEB now!
10-day predictions


NORAD ID: 32362
Int'l Code: 1999-025CZF
Perigee: 837.1 km
Apogee: 1,311.6 km
Inclination: 99.8 °
Period: 106.6 minutes
Semi major axis: 7445 km
RCS: 0.0022 m2 (small)
Launch date: May 10, 1999
Source: People's Republic of China (PRC)
Launch site: Taiyaun Space Center, China (TSC)

Note: This is SATELLITE DEBRIS
aabbcc
Your satellite tracking list
Your tracking list is empty




NASA's NSSDC Master Catalog

Two Line Element Set (TLE):
1 32362U 99025CZF 17319.78861075  .00001689  00000-0  19374-2 0  9994
2 32362  99.7866 261.0871 0318610  95.5105 268.2454 13.51372660512038
Source of the keplerian elements: AFSPC